Location: Tauranga
(37.6860°S, 176.1670°E)
Time: 10:09:11
(UTC+13:00)

ISS - Pass Details

Date: 01 February 2019
Orbit: 403 x 411 km, 51.6° (Epoch: 23 February)

Event Time Altitude Azimuth Distance (km) Brightness Sun altitude
Exits shadow 05:18:38 16° 261° (W) 1,202 -1.9 -13.0°
Maximum altitude 05:20:40 27° 211° (SSW) 842 -2.2 -12.6°
Drops below altitude 10° 05:23:36 10° 150° (SSE) 1,499 0.1 -12.1°
Sets 05:25:54 0° 137° (SE) 2,364 1.8 -11.8°
